Flag for Israel Weather past 2 weeks in Kfar Saba, Israel

Now
77 °F

Passing clouds.


Feels Like: 79 °F
Forecast: 79 / 90 °F
Wind: 6 mph from Southeast

Location: Dov Airport

Current Time: Aug 31, 2015 at 6:15:14 AM

Latest Report: Aug 31, 2015 at 5:50 AM


Visibility: N/A

Pressure: 29.80 "Hg

Humidity: 79%

Dew point: 70 °F

Location of Kfar SabaLocation

Historic Weather in Kfar Saba — Graph

°F

Kfar Saba temperature yesterday

Maximum temperature yesterday: 88 °F (at 11:50 AM)
Minimum temperature yesterday: 77 °F (at 5:50 AM)
Average temperature yesterday: 84 °F

Past Weeks' High & Low Weather Summary

 TemperatureHumidityPressure
High91 °F (Aug 17, 1:50 PM)89% (Aug 17, 5:50 AM)29.89 "Hg (Aug 17, 5:50 AM)
Low77 °F (Aug 26, 4:50 AM)49% (Aug 25, 12:50 PM)29.68 "Hg (Aug 16, 6:50 PM)
Average85 °F67%29.78 "Hg
* Reported Aug 16 4:50 AM — Aug 31 4:50 AM, Kfar Saba, Weather by CustomWeather, © 2015

Note: Actual official high and low records may vary slightly from our data, if they occured in-between our weather recording intervals... More about our weather records

Advertising

Kfar Saba weather history for previous 24 hours

 ConditionsComfort  
Time TempWeatherWind HumidityBarometerVisibility
4:50 AM
Mon, Aug 31
81 °FClear.5 mph66%29.80 "Hg10 mi
4:00 AM82 °FClear.6 mph62%29.80 "Hg10 mi
11:50 PM
Sun, Aug 30
84 °FPassing clouds.6 mph62%29.83 "HgN/A
10:50 PM84 °FPassing clouds.6 mph62%29.83 "HgN/A
9:50 PM84 °FPassing clouds.8 mph70%29.83 "HgN/A
8:50 PM84 °FPassing clouds.7 mph70%29.83 "HgN/A
7:50 PM84 °FScattered clouds.9 mph70%29.80 "HgN/A
6:50 PM86 °FScattered clouds.12 mph66%29.80 "HgN/A
5:50 PM88 °FScattered clouds.13 mph59%29.80 "HgN/A
4:50 PM88 °FScattered clouds.13 mph62%29.80 "HgN/A
3:50 PM88 °FPassing clouds.13 mph59%29.80 "HgN/A
2:50 PM88 °FPassing clouds.13 mph59%29.80 "HgN/A
1:50 PM88 °FScattered clouds.14 mph59%29.83 "HgN/A
12:50 PM88 °FScattered clouds.12 mph59%29.83 "HgN/A
11:50 AM88 °FScattered clouds.12 mph62%29.83 "HgN/A
10:50 AM86 °FScattered clouds.10 mph66%29.83 "HgN/A
9:50 AM84 °FScattered clouds.10 mph66%29.83 "HgN/A
8:50 AM82 °FScattered clouds.7 mph70%29.83 "HgN/A
7:50 AM81 °FScattered clouds.5 mph74%29.83 "HgN/A
6:50 AM77 °FPassing clouds.5 mph79%29.80 "HgN/A
Weather by CustomWeather, © 2015

See weather overviewHow to use our weather pages